Huntington, WV

3:29 AM EDT on June 25, 2017 (GMT -0400)
Tri-State / Ferguson

Weather History for KHTS - April, 2015

Change the Weather History Date:

Tuesday, April 7, 2015

  Actual Average Record
Temperature  
Mean Temperature 64 °F 54 °F  
Max Temperature 68 °F 65 °F 89 °F (1929)
Min Temperature 59 °F 42 °F 21 °F (1982)
Degree Days  
Heating Degree Days 1 12  
Month to date heating degree days 78 91  
Since 1 July heating degree days 4723 4188  
Cooling Degree Days 0 1  
Month to date cooling degree days 0 6  
Year to date cooling degree days 0 11  
Growing Degree Days 14 (Base 50)    
Moisture  
Dew Point 56 °F    
Average Humidity 85    
Maximum Humidity 97    
Minimum Humidity 72    
Precipitation  
Precipitation 0.28 in 0.12 in 1.77 in (1972)
Month to date precipitation 2.90 0.78  
Year to date precipitation 14.67 10.72  
Snow  
Snow 0.00 in - - ()
Month to date snowfall 0.0  
Since 1 September snowfall 36.6  
Snow Depth 0.00 in    
Sea Level Pressure  
Sea Level Pressure 30.08 in    
Wind  
Wind Speed 6 mph (South)    
Max Wind Speed 14 mph    
Max Gust Speed 20 mph    
Visibility 10 miles    
Events Rain    
T = Trace of Precipitation, MM = Missing Value Source: NWS Daily Summary

Daily Weather History Graph

Daily Weather History Graph

Search for Another Location

Airport or City:

Trip Planner

Search our weather history database for the weather conditions in past years. The results will help you decide how hot, cold, wet, or windy it might be!

Date:

Astronomy

Apr. 07, 2015 Rise Set
Actual Time 7:06 AM EDT 7:58 PM EDT
Civil Twilight 6:39 AM EDT 8:25 PM EDT
Nautical Twilight 6:07 AM EDT 8:57 PM EDT
Astronomical Twilight 5:34 AM EDT 9:30 PM EDT
Moon 11:09 PM EDT (4/7) 8:59 AM EDT (4/7)
Length of Visible Light 13h 46m
Length of Day
12h 52m
Waning Gibbous, 91% of the Moon is Illuminated
Apr 7
Waning Gibbous
Apr 11
Last Quarter
Apr 18
New
Apr 25
First Quarter
May 3
Full

Hourly Weather History & Observations

Time (EDT) Temp. Dew Point Humidity Pressure Visibility Wind Dir Wind Speed Gust Speed Precip Events Conditions
12:51 AM 61.0 °F 51.1 °F 70% 30.11 in 10.0 mi South 4.6 mph - N/A   Overcast
1:51 AM 60.1 °F 51.1 °F 72% 30.10 in 10.0 mi Calm Calm - N/A   Overcast
2:44 AM 61.0 °F 51.1 °F 70% 30.10 in 10.0 mi South 4.6 mph - N/A   Overcast
2:51 AM 61.0 °F 51.1 °F 70% 30.09 in 10.0 mi Calm Calm - 0.00 in Rain Light Rain
3:51 AM 60.1 °F 51.1 °F 72% 30.08 in 10.0 mi SSW 3.5 mph - 0.00 in   Overcast
4:51 AM 60.1 °F 51.1 °F 72% 30.07 in 10.0 mi South 3.5 mph - N/A   Overcast
5:51 AM 60.1 °F 52.0 °F 75% 30.08 in 10.0 mi Calm Calm - N/A   Overcast
6:51 AM 59.0 °F 52.0 °F 78% 30.09 in 10.0 mi South 4.6 mph - N/A   Overcast
7:51 AM 60.1 °F 53.1 °F 78% 30.08 in 10.0 mi South 3.5 mph - N/A   Overcast
8:51 AM 62.1 °F 55.0 °F 78% 30.09 in 10.0 mi South 5.8 mph - N/A   Overcast
9:51 AM 63.0 °F 55.0 °F 75% 30.09 in 10.0 mi SSW 6.9 mph - N/A   Overcast
10:38 AM 64.0 °F 55.9 °F 75% 30.12 in 10.0 mi SSW 6.9 mph - N/A   Overcast
10:51 AM 64.0 °F 55.9 °F 75% 30.11 in 10.0 mi SSW 5.8 mph - N/A   Overcast
11:30 AM 66.0 °F 57.0 °F 73% 30.11 in 10.0 mi SW 6.9 mph - N/A   Overcast
11:51 AM 66.0 °F 57.0 °F 73% 30.10 in 10.0 mi SSW 6.9 mph - N/A   Mostly Cloudy
12:51 PM 66.9 °F 59.0 °F 76% 30.10 in 10.0 mi WSW 8.1 mph - 0.00 in Rain Light Rain
1:22 PM 66.9 °F 57.9 °F 73% 30.09 in 10.0 mi SSW 5.8 mph - 0.00 in   Mostly Cloudy
1:51 PM 64.9 °F 57.9 °F 78% 30.08 in 10.0 mi South 13.8 mph - 0.00 in Rain Light Rain
2:51 PM 63.0 °F 59.0 °F 87% 30.09 in 6.0 mi South 5.8 mph - 0.02 in Rain Rain
3:15 PM 63.0 °F 60.1 °F 90% 30.13 in 7.0 mi West 5.8 mph - 0.02 in Rain Light Rain
3:48 PM 62.6 °F 60.8 °F 94% 30.11 in 7.0 mi SSE 4.6 mph - 0.09 in Rain Rain
3:51 PM 62.1 °F 60.1 °F 93% 30.09 in 7.0 mi SSE 6.9 mph - 0.09 in Rain Rain
4:27 PM 63.0 °F 61.0 °F 93% 30.08 in 10.0 mi South 4.6 mph - 0.05 in   Mostly Cloudy
4:51 PM 64.0 °F 60.1 °F 87% 30.07 in 10.0 mi SE 5.8 mph - 0.05 in   Mostly Cloudy
5:51 PM 64.9 °F 60.1 °F 84% 30.06 in 10.0 mi SSW 5.8 mph - N/A   Scattered Clouds
6:51 PM 64.9 °F 59.0 °F 81% 30.06 in 10.0 mi South 4.6 mph - N/A   Mostly Cloudy
7:51 PM 63.0 °F 57.0 °F 81% 30.05 in 10.0 mi South 5.8 mph - N/A   Overcast
8:51 PM 62.1 °F 57.9 °F 86% 30.07 in 10.0 mi SSW 9.2 mph - 0.00 in Rain Light Rain
9:24 PM 61.0 °F 59.0 °F 93% 30.07 in 7.0 mi South 6.9 mph - 0.05 in Rain Rain
9:51 PM 60.1 °F 59.0 °F 96% 30.03 in 9.0 mi SSE 8.1 mph - 0.10 in Rain Light Rain
10:51 PM 61.0 °F 59.0 °F 93% 30.03 in 10.0 mi South 8.1 mph - 0.02 in   Partly Cloudy
11:51 PM 61.0 °F 59.0 °F 93% 30.03 in 10.0 mi SSW 5.8 mph - N/A   Partly Cloudy